Worland, WY

1:10 PM MST on December 05, 2019 (GMT -0700)
Worland Municipal

Weather History for KWRL - October, 2019

Change the Weather History Date:

Thursday, October 24, 2019

  Actual Average Record
Temperature  
Mean Temperature 37 °F 42 °F  
Max Temperature 48 °F 57 °F 83 °F (1992)
Min Temperature 26 °F 28 °F 19 °F (1976)
Degree Days  
Heating Degree Days 28 23  
Month to date heating degree days 567 435  
Since 1 July heating degree days 782 692  
Cooling Degree Days 0 0  
Month to date cooling degree days 0 0  
Year to date cooling degree days 516 535  
Moisture  
Dew Point 21 °F    
Average Humidity 60    
Maximum Humidity 92    
Minimum Humidity 28    
Precipitation  
Precipitation 0.00 in 0.01 in 0.24 in (1981)
Month to date precipitation 0.36 0.59  
Year to date precipitation 10.92 6.89  
Sea Level Pressure  
Sea Level Pressure 30.39 in    
Wind  
Wind Speed 5 mph (SE)    
Max Wind Speed 13 mph    
Max Gust Speed 17 mph    
Visibility 10 miles    
Events      
T = Trace of Precipitation, MM = Missing Value Source: NWS Daily Summary

Daily Weather History Graph

Daily Weather History Graph

Search for Another Location

Airport or City:

Astronomy

Oct. 24, 2019 Rise Set
Actual Time 7:37 AM MDT 6:13 PM MDT
Civil Twilight 7:08 AM MDT 6:43 PM MDT
Nautical Twilight 6:34 AM MDT 7:16 PM MDT
Astronomical Twilight 6:00 AM MDT 7:50 PM MDT
Moon 2:58 AM MDT (10/24) 4:53 PM MDT (10/24)
Length of Visible Light 11h 35m
Length of Day
10h 36m
Waning Crescent, 16% of the Moon is Illuminated
Oct 24
Waning Crescent
Oct 27
New
Nov 4
First Quarter
Nov 12
Full
Nov 19
Last Quarter

Hourly Weather History & Observations

Time (MDT) Temp. Windchill Dew Point Humidity Pressure Visibility Wind Dir Wind Speed Gust Speed Precip Events Conditions
2:53 AM 30.9 °F 25.2 °F 24.1 °F 76% 30.48 in 10.0 mi ESE 5.8 mph - N/A   Overcast
3:53 AM 30.0 °F - 24.1 °F 79% 30.47 in 10.0 mi Calm Calm - N/A   Overcast
4:53 AM 28.9 °F - 24.1 °F 82% 30.48 in 10.0 mi Calm Calm - N/A   Overcast
5:53 AM 30.0 °F 22.4 °F 24.1 °F 79% 30.48 in 10.0 mi SE 8.1 mph - N/A   Overcast
6:53 AM 27.0 °F 18.7 °F 24.1 °F 89% 30.48 in 10.0 mi SE 8.1 mph - N/A   Clear
7:53 AM 28.9 °F 20.4 °F 24.1 °F 82% 30.48 in 10.0 mi SSE 9.2 mph - N/A   Clear
8:53 AM 30.9 °F 24.3 °F 24.1 °F 76% 30.47 in 10.0 mi SE 6.9 mph - N/A   Clear
9:53 AM 34.0 °F 27.2 °F 25.0 °F 70% 30.44 in 10.0 mi SE 8.1 mph - N/A   Clear
10:53 AM 37.9 °F 31.5 °F 25.0 °F 60% 30.42 in 10.0 mi ESE 9.2 mph - N/A   Clear
11:53 AM 39.9 °F 33.9 °F 23.0 °F 51% 30.37 in 10.0 mi SSE 9.2 mph - N/A   Clear
12:53 PM 43.0 °F 40.3 °F 21.9 °F 43% 30.34 in 10.0 mi Variable 4.6 mph - N/A   Clear
1:53 PM 45.0 °F 43.5 °F 17.1 °F 33% 30.31 in 10.0 mi NNE 3.5 mph - N/A   Mostly Cloudy
2:53 PM 46.0 °F 44.8 °F 17.1 °F 31% 30.29 in 10.0 mi South 3.5 mph - N/A   Clear
3:53 PM 46.9 °F - 16.0 °F 29% 30.28 in 10.0 mi Calm Calm - N/A   Clear
4:53 PM 48.0 °F - 17.1 °F 29% 30.30 in 10.0 mi Calm Calm - N/A   Clear
5:53 PM 44.1 °F 41.5 °F 21.0 °F 40% 30.31 in 10.0 mi SE 4.6 mph - N/A   Clear
6:53 PM 36.0 °F 30.3 °F 19.0 °F 50% 30.35 in 10.0 mi SSE 6.9 mph - N/A   Clear
7:53 PM 35.1 °F 29.3 °F 21.9 °F 59% 30.37 in 10.0 mi SE 6.9 mph - N/A   Clear
8:53 PM 33.1 °F 26.1 °F 19.9 °F 59% 30.38 in 10.0 mi SE 8.1 mph - N/A   Clear
9:53 PM 32.0 °F 26.4 °F 19.0 °F 59% 30.37 in 10.0 mi SE 5.8 mph - N/A   Clear
10:53 PM 32.0 °F 28.7 °F 19.0 °F 59% 30.36 in 10.0 mi Variable 3.5 mph - N/A   Clear
11:53 PM 30.0 °F - 19.9 °F 66% 30.36 in 10.0 mi Calm Calm - N/A   Clear